[[{"header":{"parameterUnit":"m.s-1","parameterCategory":1,"la1":30.2991,"la2":30.254,"lo1":-89.0895,"lo2":-89.0444,"dy":0.0017,"dx":0.0017,"nx":28,"ny":28,"refTime":"2024-04-08T21:00:00:Z","depth":0,"parameterNumber":2,"parameterNumberName":"U-component_of_WINDS"},"data":[0,0,0,0,0,0,0,0,0,0,0,0,0,0,0,0,0,0,0,0,0,0,0,0,0,0,0,0,0,0,0,0,0,0,0,0,0,0,0,0,0,0,0,0,0,0,0,0,0,0,0,0,0,0,0,0,0,0,-7.2585,-7.2585,0,-7.2639,-7.264,-7.2641,-7.2542,-7.2539,-7.2536,-7.2533,-7.2583,-7.2588,-7.2592,0,0,0,0,0,0,0,0,0,0,0,0,0,-7.2393,-7.2397,-7.2585,-7.2586,-7.2586,-7.2639,-7.264,-7.2641,-7.2543,-7.2539,-7.2535,-7.2531,-7.2582,-7.2587,-7.2592,0,0,0,0,0,0,0,0,0,0,0,0,0,-7.2464,-7.2398,-7.2585,-7.2544,-7.2541,-7.2639,-7.264,-7.2641,-7.2544,-7.2539,-7.2534,-7.2529,-7.258,-7.2586,-7.2593,-7.2732,0,0,-7.2613,-7.2616,0,0,0,0,0,0,0,0,-7.246,-7.2471,-7.2549,-7.2547,-7.2544,-7.2579,-7.2591,-7.2671,-7.2545,-7.2543,-7.2533,-7.2527,-7.2586,-7.2591,-7.2612,-7.2734,-7.2736,-7.2614,-7.2618,-7.262,-7.2622,0,0,0,0,0,0,0,-7.2456,-7.2469,-7.2606,-7.2551,-7.2547,-7.2522,-7.2527,-7.2605,-7.2591,-7.2542,-7.2535,-7.2544,-7.2583,-7.2606,-7.2613,-7.2737,-7.2613,-7.2619,-7.2623,-7.2626,-7.2975,-7.298,0,0,0,0,0,0,-7.2456,-7.2465,-7.2604,-7.2608,-7.2489,-7.2529,-7.2535,-7.2573,-7.259,-7.2588,-7.2548,-7.2539,-7.2597,-7.2605,-7.2614,-7.2776,-7.262,-7.2627,-7.263,-7.297,-7.2976,-7.2982,0,0,0,0,0,0,-7.2453,-7.247,-7.2602,-7.2535,-7.255,-7.2538,-7.2581,-7.2576,-7.2599,-7.2594,-7.259,-7.2574,-7.2594,-7.2605,-7.2703,-7.2776,-7.263,-7.2636,-7.2964,-7.2972,-7.2979,-7.3102,0,0,0,0,0,0,-7.2447,-7.2469,-7.2522,-7.2537,-7.2554,-7.2692,-7.2586,-7.2581,-7.2611,-7.26,-7.2617,-7.2615,-7.2591,-7.2694,-7.271,-7.2783,-7.2641,-7.2957,-7.2967,-7.2977,-7.3091,-7.3113,-7.3132,0,0,0,0,0,-7.2441,-7.2553,-7.2525,-7.2542,-7.262,-7.2696,-7.2706,-7.2676,-7.2618,-7.267,-7.2667,-7.2615,-7.2767,-7.2705,-7.2722,-7.2798,-7.2952,-7.2964,-7.2976,-7.3082,-7.3109,-7.3132,0,0,0,0,0,0,-7.2544,-7.2554,-7.2523,-7.2644,-7.2671,-7.268,-7.2745,-7.2706,-7.2748,-7.2735,-7.2696,-7.2701,-7.2807,-7.2813,-7.2744,-7.2933,-7.285,-7.2866,-7.2924,-7.295,-7.297,-7.2964,-7.2646,0,0,0,0,0,-7.2582,-7.2645,-7.2649,-7.2755,-7.2771,-7.2757,-7.2788,-7.2764,-7.2789,-7.2799,-7.2803,-7.2828,-7.2881,-7.2917,-7.2965,-7.3094,-7.3095,-7.3155,-7.3175,-7.3192,-7.3204,-7.3272,-7.3298,-7.3022,-7.3022,-7.3021,0,0,-7.2658,-7.2672,-7.2713,-7.2777,-7.2794,-7.2858,-7.2766,-7.2838,-7.2884,-7.2809,-7.2902,-7.2907,-7.2932,-7.3046,-7.3097,-7.3054,-7.3282,-7.3207,-7.3221,-7.3224,-7.3287,-7.3313,-7.3336,-7.303,-7.3028,-7.3027,0,0,-7.283,-7.2848,-7.2937,-7.2958,-7.2987,-7.2978,-7.3,-7.3016,-7.3017,-7.3111,-7.3056,-7.3111,-7.3204,-7.3224,-7.3246,-7.3431,-7.3383,-7.3448,-7.3552,-7.3618,-7.364,-7.3659,-7.3722,-7.3745,-7.3462,-7.3462,-7.3463,0,-7.292,-7.3016,-7.2988,-7.3064,-7.3093,-7.3032,-7.3122,-7.3143,-7.3186,-7.3207,-7.316,-7.3277,-7.329,-7.3407,-7.3452,-7.3474,-7.3496,-7.3443,-7.364,-7.3659,-7.3676,-7.3735,-7.3759,-7.347,-7.3469,-7.3468,-7.3467,0,-7.3125,-7.3193,-7.3262,-7.3307,-7.3345,-7.3428,-7.3411,-7.3452,-7.3427,-7.3422,-7.3518,-7.3533,-7.3583,-7.361,-7.3584,-7.3725,-7.3697,-7.3647,-7.356,-7.371,-7.3765,-7.3788,-7.348,-7.3478,-7.3475,-7.3474,0,0,-7.3357,-7.339,-7.3415,-7.3435,-7.3465,-7.3516,-7.3597,-7.3648,-7.3683,-7.3717,-7.3782,-7.3864,-7.3818,-7.3844,-7.3821,-7.388,-7.4022,-7.3821,-7.3821,-7.3855,-7.4174,-7.4209,-7.4236,-7.3994,-7.3998,-7.4001,-7.4171,0,-7.3525,-7.3665,-7.3644,-7.3778,-7.3839,-7.3785,-7.3855,-7.388,-7.3879,-7.393,-7.3929,-7.3987,-7.3923,-7.3938,-7.3994,-7.3993,-7.4085,-7.3981,-7.405,-7.4053,-7.404,-7.4265,-7.4302,-7.4461,-7.4193,-7.4196,-7.4199,0,-7.3738,-7.3781,-7.3923,-7.3944,-7.3969,-7.4033,-7.4079,-7.413,-7.4158,-7.4153,-7.4184,-7.4151,-7.423,-7.4148,-7.4256,-7.4186,-7.4214,-7.4218,-7.4224,-7.4224,-7.4131,-7.4268,-7.4512,-7.4534,-7.4233,-7.4231,-7.4228,0,-7.3889,-7.3983,-7.408,-7.4099,-7.4128,-7.4173,-7.4187,-7.4211,-7.4244,-7.4285,-7.4305,-7.4355,-7.4381,-7.4419,-7.44,-7.4342,-7.4511,-7.4427,-7.4506,-7.4507,-7.4539,-7.4536,-7.4786,-7.4566,-7.4565,-7.4565,-7.4564,0,-7.4075,-7.4163,-7.4148,-7.4207,-7.4303,-7.4279,-7.4375,-7.4382,-7.4405,-7.4463,-7.442,-7.4475,-7.4449,-7.4502,-7.4488,-7.4578,-7.4591,-7.4588,-7.4582,-7.4589,-7.4589,-7.4603,-7.4589,-7.4571,-7.457,-7.4569,-7.4568,0,-7.4257,-7.4252,-7.4352,-7.4373,-7.4381,-7.4451,-7.4467,-7.4522,-7.452,-7.4594,-7.461,-7.4606,-7.4667,-7.4654,-7.472,-7.471,-7.4823,-7.4806,-7.4813,-7.4807,-7.4886,-7.4877,-7.5149,-7.5182,-7.4945,-7.4947,-7.4949,0,-7.4374,-7.4441,-7.447,-7.4507,-7.4525,-7.4585,-7.462,-7.46,-7.4637,-7.4676,-7.4726,-7.4784,-7.4828,-7.4928,-7.4929,-7.498,-7.4961,-7.5053,-7.4968,-7.4973,-7.4958,-7.4952,-7.4957,-7.5068,-7.5071,-7.5073,-7.5075,0,-7.4581,-7.4576,-7.4628,-7.4681,-7.4724,-7.4764,-7.4799,-7.4831,-7.4815,-7.4859,-7.4922,-7.4957,-7.5027,-7.5083,-7.5131,-7.5144,-7.5106,-7.5103,-7.5123,-7.5128,-7.5128,-7.5125,-7.4854,-7.5095,-7.5093,-7.5092,-7.509,-7.509,-7.4731,-7.4788,-7.4818,-7.4878,-7.4903,-7.4938,-7.4991,-7.4997,-7.505,-7.5105,-7.5092,-7.5163,-7.519,-7.5251,-7.527,-7.5324,-7.5289,-7.5319,-7.5326,-7.5333,-7.5341,-7.5125,-7.5333,-7.5333,-7.5332,-7.5332,-7.5331,0,-7.4933,-7.4951,-7.5007,-7.5059,-7.5106,-7.5072,-7.511,-7.5151,-7.5215,-7.5245,-7.5292,-7.5364,-7.542,-7.5429,-7.5482,-7.5524,-7.5507,-7.5538,-7.5531,-7.5535,-7.537,-7.5346,-7.555,-7.555,-7.555,-7.5549,-7.5549,-7.5549,-7.5043,-7.5136,-7.5135,-7.5241,-7.5258,-7.5328,-7.5353,-7.5385,-7.5409,-7.5493,-7.554,-7.5547,-7.5568,-7.5623,-7.5673,-7.5674,-7.5693,-7.5729,-7.5723,-7.5568,-7.5546,-7.5525,-7.5502,-7.5735,-7.5735,-7.5882,-7.5883,-7.5884]},{"header":{"parameterUnit":"m.s-1","parameterCategory":1,"la1":30.2991,"la2":30.254,"lo1":-89.0895,"lo2":-89.0444,"dy":0.0017,"dx":0.0017,"nx":28,"ny":28,"refTime":"2024-04-08T21:00:00:Z","depth":0,"parameterNumber":3,"parameterNumberName":"V-component_of_WINDS"},"data":[0,0,0,0,0,0,0,0,0,0,0,0,0,0,0,0,0,0,0,0,0,0,0,0,0,0,0,0,0,0,0,0,0,0,0,0,0,0,0,0,0,0,0,0,0,0,0,0,0,0,0,0,0,0,0,0,0,0,1.6316,1.6316,0,1.6382,1.6382,1.6383,1.6425,1.6425,1.6426,1.6426,1.6492,1.6493,1.6495,0,0,0,0,0,0,0,0,0,0,0,0,0,1.6226,1.6227,1.6316,1.6316,1.6317,1.6382,1.6383,1.6383,1.6425,1.6425,1.6426,1.6426,1.6491,1.6493,1.6495,0,0,0,0,0,0,0,0,0,0,0,0,0,1.6276,1.6228,1.6315,1.6346,1.6349,1.6381,1.6383,1.6384,1.6425,1.6425,1.6426,1.6426,1.6491,1.6493,1.6495,1.6502,0,0,1.6502,1.6503,0,0,0,0,0,0,0,0,1.6273,1.6279,1.6341,1.6344,1.6348,1.6396,1.6375,1.6423,1.6425,1.6396,1.6426,1.6426,1.6459,1.6464,1.6476,1.6505,1.6508,1.6502,1.6504,1.6505,1.6505,0,0,0,0,0,0,0,1.6269,1.6276,1.6342,1.6341,1.6346,1.6356,1.6364,1.6384,1.6425,1.6399,1.6402,1.6409,1.6461,1.6473,1.6478,1.6508,1.6502,1.6504,1.6506,1.6507,1.6549,1.6549,0,0,0,0,0,0,1.6261,1.6273,1.634,1.6344,1.6311,1.6358,1.6366,1.638,1.6425,1.6432,1.6409,1.6411,1.6469,1.6475,1.648,1.6492,1.6505,1.6507,1.6508,1.6549,1.6549,1.6548,0,0,0,0,0,0,1.6259,1.6267,1.6337,1.6309,1.6319,1.6359,1.6374,1.6381,1.6393,1.6432,1.644,1.6414,1.647,1.6477,1.6497,1.6495,1.6508,1.651,1.6549,1.6549,1.6549,1.6516,0,0,0,0,0,0,1.6256,1.6266,1.6268,1.6309,1.6321,1.6352,1.6374,1.6382,1.6397,1.64,1.6439,1.6446,1.6471,1.6493,1.6499,1.6498,1.6512,1.655,1.6549,1.6549,1.6517,1.6514,1.6512,0,0,0,0,0,1.6253,1.6255,1.6268,1.6276,1.6325,1.6352,1.6359,1.6388,1.6397,1.64,1.6426,1.6444,1.6494,1.6495,1.6502,1.6502,1.655,1.6549,1.6549,1.6518,1.6515,1.6512,0,0,0,0,0,0,1.6212,1.6261,1.6276,1.6292,1.6318,1.6359,1.6364,1.6383,1.6406,1.6408,1.6443,1.6451,1.6468,1.6487,1.6486,1.6512,1.6524,1.6525,1.6499,1.6496,1.6493,1.6488,1.6514,0,0,0,0,0,1.6205,1.6224,1.6265,1.6275,1.6288,1.6324,1.6337,1.6357,1.6385,1.6396,1.6423,1.6449,1.6471,1.6484,1.6506,1.652,1.653,1.6524,1.6521,1.6519,1.6519,1.653,1.6528,1.6547,1.6547,1.6547,0,0,1.619,1.622,1.6229,1.6268,1.629,1.6309,1.6332,1.635,1.6365,1.6398,1.642,1.644,1.6472,1.6489,1.6498,1.6505,1.6516,1.6518,1.6516,1.6518,1.6529,1.6527,1.6526,1.6546,1.6546,1.6546,0,0,1.6174,1.6197,1.6209,1.6232,1.6266,1.629,1.6293,1.6332,1.6348,1.637,1.6396,1.6414,1.645,1.6472,1.6488,1.6482,1.6501,1.6488,1.6475,1.6484,1.6483,1.6482,1.6481,1.648,1.6489,1.6489,1.6489,0,1.6151,1.618,1.6212,1.623,1.6247,1.628,1.6293,1.6313,1.6352,1.6363,1.6371,1.6419,1.6443,1.6467,1.6465,1.6477,1.6482,1.6484,1.6481,1.648,1.6479,1.6479,1.6478,1.6487,1.6487,1.6487,1.6487,0,1.6152,1.6172,1.6177,1.6216,1.6234,1.6248,1.6283,1.6297,1.6317,1.6341,1.6363,1.6393,1.6423,1.643,1.6448,1.6457,1.6461,1.6474,1.6488,1.6475,1.6476,1.6476,1.6485,1.6485,1.6486,1.6486,0,0,1.6109,1.6168,1.6169,1.6188,1.6229,1.6246,1.6263,1.6293,1.6305,1.6331,1.6347,1.6378,1.6392,1.641,1.6432,1.644,1.6436,1.6453,1.6454,1.645,1.6449,1.6439,1.6438,1.6448,1.6449,1.6449,1.6447,0,1.6099,1.6132,1.6163,1.6185,1.6205,1.6237,1.6252,1.6279,1.6302,1.6323,1.6348,1.637,1.6386,1.6397,1.6407,1.6434,1.6436,1.6435,1.6464,1.6464,1.6455,1.6438,1.6427,1.6424,1.6447,1.6447,1.6447,0,1.6092,1.6119,1.6143,1.6184,1.6194,1.6207,1.6238,1.6257,1.6289,1.6305,1.6327,1.635,1.637,1.6382,1.6411,1.6409,1.6423,1.6438,1.6439,1.6443,1.6455,1.6442,1.6423,1.6423,1.6447,1.6447,1.6447,0,1.606,1.6102,1.6123,1.6138,1.6186,1.6195,1.6215,1.6248,1.6265,1.6292,1.6304,1.6332,1.6348,1.637,1.6401,1.6406,1.6427,1.6441,1.6442,1.6441,1.6445,1.6444,1.6428,1.6453,1.6453,1.6453,1.6453,0,1.6046,1.606,1.6109,1.6122,1.6139,1.6174,1.619,1.6214,1.6243,1.6261,1.629,1.6307,1.6346,1.6368,1.6392,1.6413,1.642,1.6434,1.644,1.6432,1.643,1.6441,1.6442,1.6453,1.6453,1.6453,1.6453,0,1.6013,1.6047,1.6072,1.6117,1.6128,1.6139,1.6177,1.6191,1.6217,1.6239,1.6247,1.6287,1.6313,1.6347,1.6383,1.64,1.6419,1.6428,1.6408,1.6412,1.6412,1.6412,1.6403,1.6404,1.6427,1.6426,1.6426,0,1.6002,1.6014,1.6061,1.6076,1.6096,1.6119,1.6137,1.6173,1.619,1.6229,1.6238,1.6268,1.6293,1.6335,1.6367,1.6396,1.6406,1.6401,1.6411,1.6402,1.6407,1.6407,1.6409,1.6399,1.6398,1.6398,1.6398,0,1.598,1.5997,1.6021,1.6053,1.6074,1.61,1.6128,1.6138,1.618,1.6198,1.6227,1.6246,1.6285,1.6314,1.6348,1.6369,1.6391,1.6395,1.6397,1.6388,1.6377,1.6384,1.6402,1.6395,1.6395,1.6395,1.6395,1.6395,1.5958,1.5971,1.6007,1.6034,1.6059,1.6085,1.61,1.6129,1.6153,1.6189,1.6208,1.6236,1.627,1.6318,1.6339,1.6361,1.6369,1.6371,1.6372,1.6372,1.637,1.6373,1.6367,1.6368,1.6368,1.6368,1.6368,0,1.5938,1.5963,1.5988,1.6027,1.6049,1.6068,1.61,1.6117,1.6142,1.6172,1.6197,1.6231,1.626,1.6295,1.6326,1.6338,1.6349,1.6345,1.6345,1.635,1.6361,1.6357,1.6336,1.6336,1.6336,1.6336,1.6336,1.6336,1.5931,1.5954,1.5975,1.6011,1.6036,1.6065,1.6082,1.6106,1.613,1.6167,1.6191,1.6215,1.6247,1.6282,1.6309,1.6319,1.633,1.6323,1.6336,1.6346,1.6349,1.6351,1.6347,1.6325,1.6325,1.6323,1.6323,1.6323]}]]